Weather History for Nantucket, MA

Change the Weather History Date:

Tuesday, June 11, 2013

  Actual Average Record
Temperature  
Mean Temperature 60 °F -  
Max Temperature 64 °F 66 °F 87 °F (1997)
Min Temperature 57 °F 53 °F 43 °F (1966)
Degree Days  
Heating Degree Days 4    
Growing Degree Days 10 (Base 50)    
Moisture  
Dew Point 60 °F    
Average Humidity 96    
Maximum Humidity 100    
Minimum Humidity 88    
Precipitation  
Precipitation 0.82 in - - ()
Sea Level Pressure  
Sea Level Pressure 29.77 in    
Wind  
Wind Speed 16 mph (SSW)    
Max Wind Speed 22 mph    
Max Gust Speed 30 mph    
Visibility 2 miles    
Events Fog , Rain    
Averages and records for this station are not official NWS values.
T = Trace of Precipitation, MM = Missing Value Source: NWS Daily Summary

Daily Weather History Graph

Daily Weather History Graph

Search for Another Location

Airport:

Trip Planner

Search our weather history database for the weather conditions in past years. The results will help you decide how hot, cold, wet, or windy it might be!

Date:

Astronomy

Jun. 11, 2013 Rise Set
Actual Time 5:06 AM EDT 8:13 PM EDT
Civil Twilight 4:33 AM EDT 8:47 PM EDT
Nautical Twilight 3:50 AM EDT 9:30 PM EDT
Astronomical Twilight 2:59 AM EDT 10:21 PM EDT
Moon 7:48 AM EDT (6/11) 10:12 PM EDT (6/11)
Length of Visible Light 16h 13m
Length of Day
15h 06m
Waxing Crescent, 8% of the Moon is Illuminated
Jun 11
Waxing Crescent
Jun 16
First Quarter
Jun 23
Full
Jun 30
Last Quarter
Jul 8
New

Hourly Weather History & Observations

Time (EDT) Temp. Dew Point Humidity Pressure Visibility Wind Dir Wind Speed Gust Speed Precip Events Conditions
12:10 AM 57.2 °F 55.4 °F 94% 29.99 in 2.0 mi ESE 16.1 mph 25.3 mph 0.10 in Rain Heavy Rain
12:24 AM 57.2 °F 57.2 °F 100% 29.98 in 3.0 mi East 16.1 mph 26.5 mph 0.15 in Rain Rain
12:38 AM 57.2 °F 57.2 °F 100% 29.96 in 4.0 mi East 19.6 mph - 0.18 in Rain Rain
12:51 AM 59.0 °F 57.2 °F 94% 29.96 in 2.5 mi East 18.4 mph 26.5 mph 0.29 in Rain Heavy Rain
12:53 AM 59.0 °F 57.0 °F 93% 29.96 in 2.0 mi East 19.6 mph 27.6 mph 0.33 in Rain Heavy Rain
1:02 AM 59.0 °F 57.2 °F 94% 29.95 in 2.0 mi East 18.4 mph 27.6 mph 0.08 in Rain Heavy Rain
1:07 AM 59.0 °F 57.2 °F 94% 29.95 in 3.0 mi East 13.8 mph 24.2 mph 0.11 in Rain Heavy Rain
1:23 AM 57.2 °F 57.2 °F 100% 29.94 in 2.5 mi East 13.8 mph 20.7 mph 0.21 in Rain Rain
1:32 AM 57.2 °F 57.2 °F 100% 29.93 in 3.0 mi East 18.4 mph 27.6 mph 0.25 in Rain Rain
1:42 AM 57.2 °F 57.2 °F 100% 29.92 in 2.0 mi East 19.6 mph 25.3 mph 0.33 in Rain Heavy Rain
1:53 AM 59.0 °F 57.0 °F 93% 29.92 in 3.0 mi East 18.4 mph 27.6 mph 0.38 in Rain Heavy Rain
2:53 AM 60.1 °F 57.9 °F 93% 29.88 in 6.0 mi ESE 16.1 mph - 0.07 in Rain Light Rain
3:34 AM 60.8 °F 59.0 °F 94% 29.86 in 1.8 mi ESE 10.4 mph - 0.00 in   Overcast
3:53 AM 61.0 °F 60.1 °F 97% 29.85 in 0.5 mi ESE 9.2 mph - 0.00 in Fog Fog
4:39 AM 62.6 °F 62.6 °F 100% 29.83 in 1.0 mi South 16.1 mph 25.3 mph N/A   Mist
4:53 AM 63.0 °F 62.1 °F 97% 29.82 in 3.0 mi South 17.3 mph - N/A   Overcast
5:53 AM 63.0 °F 62.1 °F 97% 29.81 in 2.0 mi SSW 19.6 mph 26.5 mph 0.01 in   Overcast
6:50 AM 62.6 °F 62.6 °F 100% 29.79 in 1.5 mi SSW 16.1 mph - N/A   Overcast
6:53 AM 63.0 °F 62.1 °F 97% 29.79 in 1.2 mi SSW 16.1 mph 23.0 mph N/A   Overcast
7:13 AM 62.6 °F 62.6 °F 100% 29.79 in 0.8 mi SSW 16.1 mph - N/A   Mist
7:53 AM 63.0 °F 62.1 °F 97% 29.79 in 0.8 mi SSW 17.3 mph - N/A   Mist
8:43 AM 62.6 °F 62.6 °F 100% 29.77 in 0.2 mi SSW 17.3 mph 24.2 mph N/A Fog Fog
8:53 AM 63.0 °F 62.1 °F 97% 29.76 in 0.2 mi SSW 17.3 mph - N/A Fog Fog
9:07 AM 62.6 °F 62.6 °F 100% 29.76 in 0.5 mi SSW 19.6 mph - N/A Fog Fog
9:38 AM 64.4 °F 62.6 °F 94% 29.75 in 0.2 mi SSW 13.8 mph 21.9 mph N/A Fog Fog
9:53 AM 63.0 °F 62.1 °F 97% 29.74 in 0.2 mi SSW 13.8 mph - N/A Fog Fog
10:53 AM 63.0 °F 62.1 °F 97% 29.74 in 0.2 mi SSW 13.8 mph - N/A Fog Fog
11:13 AM 62.6 °F 60.8 °F 94% 29.74 in 0.5 mi SSW 17.3 mph - N/A Fog Fog
11:53 AM 62.1 °F 61.0 °F 96% 29.73 in 0.5 mi SSW 16.1 mph - N/A Fog Fog
12:06 PM 62.6 °F 60.8 °F 94% 29.73 in 0.2 mi SW 17.3 mph 23.0 mph N/A Fog Fog
12:39 PM 62.6 °F 60.8 °F 94% 29.72 in 0.5 mi SSW 15.0 mph - N/A Fog Fog
12:53 PM 62.1 °F 60.1 °F 93% 29.72 in 0.5 mi SW 16.1 mph - N/A Fog Fog
1:01 PM 62.6 °F 60.8 °F 94% 29.72 in 0.2 mi SW 16.1 mph - N/A Fog Fog
1:15 PM 62.6 °F 60.8 °F 94% 29.72 in 0.5 mi SW 16.1 mph - N/A Fog Fog
1:53 PM 62.1 °F 60.1 °F 93% 29.71 in 0.2 mi SW 16.1 mph - N/A Fog Fog
2:01 PM 62.6 °F 60.8 °F 94% 29.71 in 0.5 mi SW 15.0 mph - N/A Fog Fog
2:09 PM 62.6 °F 60.8 °F 94% 29.71 in 0.5 mi SW 16.1 mph - N/A Fog Fog
2:53 PM 63.0 °F 61.0 °F 93% 29.69 in 0.5 mi SW 15.0 mph - N/A Fog Fog
3:48 PM 62.6 °F 60.8 °F 94% 29.68 in 1.5 mi SW 16.1 mph - N/A   Overcast
3:53 PM 62.1 °F 59.0 °F 90% 29.68 in 1.5 mi SW 16.1 mph - N/A   Overcast
4:19 PM 62.6 °F 59.0 °F 88% 29.66 in 0.8 mi SW 13.8 mph - N/A   Overcast
4:53 PM 61.0 °F 59.0 °F 93% 29.66 in 0.8 mi SSW 13.8 mph - N/A   Mist
5:18 PM 60.8 °F 59.0 °F 94% 29.65 in 0.2 mi SSW 13.8 mph 21.9 mph N/A Fog Fog
5:53 PM 61.0 °F 59.0 °F 93% 29.64 in 0.2 mi SSW 16.1 mph - N/A Fog Fog
6:53 PM 60.1 °F 59.0 °F 96% 29.64 in 0.2 mi SW 13.8 mph - N/A Fog Fog
7:01 PM 60.8 °F 59.0 °F 94% 29.63 in 0.2 mi SW 15.0 mph 20.7 mph N/A Fog Fog
7:53 PM 60.1 °F 59.0 °F 96% 29.62 in 0.5 mi SSW 15.0 mph - N/A Fog Fog
8:06 PM 60.8 °F 60.8 °F 100% 29.61 in 2.0 mi SSW 16.1 mph 24.2 mph 0.00 in Rain Light Rain
8:19 PM 60.8 °F 60.8 °F 100% 29.60 in 1.5 mi SSW 17.3 mph - 0.02 in Rain Light Rain
8:53 PM 61.0 °F 59.0 °F 93% 29.60 in 6.0 mi SSW 12.7 mph 23.0 mph 0.03 in   Overcast
9:53 PM 62.1 °F 60.1 °F 93% 29.60 in 6.0 mi SW 21.9 mph 29.9 mph N/A   Overcast
10:53 PM 62.1 °F 60.1 °F 93% 29.60 in 6.0 mi WSW 20.7 mph 27.6 mph N/A   Scattered Clouds
11:53 PM 62.1 °F 60.1 °F 93% 29.60 in 6.0 mi West 16.1 mph - N/A   Mostly Cloudy